Regional Weather Roundup
Issued by NWS

Home | Current Version | Previous Version | Graphics & Text | Print | Product List | Glossary On
Versions: 1 2 3 4 5 6 7 8 9 10 11 12 13 14 15 16 17 18 19 20 21 22 23 24 25 26 27 28 29 30 31 32 33 34 35 36 37 38 39 40 41 42 43 44 45 46 47 48 49 50
000
ASUS43 KOAX 272310
RWRNE

WEATHER ROUNDUP FOR NEBRASKA
NATIONAL WEATHER SERVICE OMAHA NE
600 PM CDT WED AUG 27 2014

NOTES: SATELLITE DATA IS BEING USED TO AUGMENT CLOUD COVER ABOVE
       12000 FEET.
       "FAIR" INDICATES FEW OR NO CLOUDS BELOW 12,000 FEET WITH NO
       SIGNIFICANT WEATHER AND/OR OBSTRUCTIONS TO VISIBILITY.

  * THESE STATIONS DO NOT REPORT WEATHER SUCH AS RAIN...SNOW OR FOG.

NEZ001>004-019>022-054>056-280000-
NEBRASKA PANHANDLE

CITY           SKY/WX    TMP DP  RH WIND       PRES   REMARKS
SCOTTSBLUFF    PTSUNNY   68  63  84 W6        30.06F
ALLIANCE       CLOUDY    67  64  90 NW13      30.04F
CHADRON        LGT RAIN  65  64  97 NE7       30.05F
KIMBALL        PTSUNNY   67  57  71 N8        30.08S
SIDNEY         PTSUNNY   74  56  53 N14       30.06F
$$

NEZ057>060-069>072-079>082-280000-
SOUTHWEST NEBRASKA

CITY           SKY/WX    TMP DP  RH WIND       PRES   REMARKS
NORTH PLATTE   PTSUNNY   71  66  84 E15       30.02F
IMPERIAL       PTSUNNY   79  64  60 SE15      29.99F
LEXINGTON      CLOUDY    72  70  93 SE10      30.04F
MCCOOK         PTSUNNY   73  68  84 SE18      30.02F
OGALLALA       PTSUNNY   69  65  85 E12       30.01F
$$

NEZ005>010-023>029-035>040-094-280000-
NORTH CENTRAL NEBRASKA

CITY           SKY/WX    TMP DP  RH WIND       PRES   REMARKS
VALENTINE      CLOUDY    75  67  76 S14       30.03F
AINSWORTH      CLOUDY    71  66  83 S8        30.05F
BROKEN BOW     CLOUDY    76  67  73 SE15G23   30.04F
O`NEILL        CLOUDY    72  68  89 E7        30.07S
ORD            CLOUDY    75  67  76 SE10      30.03F
THEDFORD       CLOUDY    73  68  83 SE13      30.06F
$$

NEZ041-046>049-061>064-073>077-083>087-280000-
SOUTH CENTRAL NEBRASKA

CITY           SKY/WX    TMP DP  RH WIND       PRES   REMARKS
GRAND ISLAND   PTSUNNY   76  71  85 SE9       30.04F
AURORA         PTSUNNY   75  73  93 SE6       30.05F
HASTINGS       LGT RAIN  72  65  78 SE6       30.05F
HEBRON         CLOUDY    77  70  79 CALM      30.04F
HOLDREGE       CLOUDY    73  70  89 E12       30.04F
KEARNEY *      CLOUDY    73  70  88 E13       30.05S
YORK           CLOUDY    75 N/A N/A SE9       30.04F
$$

NEZ011>018-030>034-042>045-280000-
NORTHEAST NEBRASKA

CITY           SKY/WX    TMP DP  RH WIND       PRES   REMARKS
NORFOLK        CLOUDY    72  68  87 E7        30.06F
ALBION         CLOUDY    73  68  82 SE6       30.05F
BLAIR          CLOUDY    73  69  88 NE9       30.07S
FREMONT        CLOUDY    76  69  78 E7        30.05F
TEKAMAH        PTSUNNY   74  69  85 NE6       30.06S
WAYNE          CLOUDY    71  69  94 E6        30.07F
$$

NEZ050>053-065>068-078-088>093-280000-
SOUTHEAST NEBRASKA

CITY           SKY/WX    TMP DP  RH WIND       PRES   REMARKS
LINCOLN        CLOUDY    76  69  79 SE10      30.04F
OMAHA EPPLEY   CLOUDY    74  69  85 E10       30.06S
BEATRICE       CLOUDY    75  72  91 SE7       30.03S
FALLS CITY     CLOUDY    80  73  79 E3        30.04F
NEBRASKA CITY  CLOUDY    74  73  97 CALM      30.05F
PLATTSMOUTH    CLOUDY    74  69  85 SE6       30.05F
$$

NEZ044-045-051>053-067-280000-
OMAHA AREA

CITY           SKY/WX    TMP DP  RH WIND       PRES   REMARKS
OMAHA EPPLEY   CLOUDY    74  69  85 E10       30.06S
BLAIR          CLOUDY    73  69  88 NE9       30.07S
FREMONT        CLOUDY    76  69  78 E7        30.05F
MILLARD        CLOUDY    75  69  80 E5        30.06R
OFFUTT AFB     CLOUDY    75  74  96 E6        30.06R
PLATTSMOUTH    CLOUDY    74  69  85 SE6       30.05F
WAHOO          MOCLDY    76  69  78 SE7       30.05R
$$


USA.gov is the U.S. government's official web portal to all federal, state and local government web resources and services.